FENGYUN 1C DEB, 31813

Orbit data source: Space-Track

FENGYUN 1C DEB, 31813 is space debris in SSO originally from a launch on Mon, 10 May 1999 UTC launched from the Taiyaun Space Center, China (TSC). Fengyun 1C debris stems from the Chinese weather satellite Fengyun-1C, which was intentionally destroyed by a Chinese anti-satellite missile in 2007. This event dramatically increased the amount of space debris, with thousands of trackable fragments posing hazards to satellites and human spaceflight. The Fengyun 1C debris cloud has become a focal point in discussions about space sustainability and the need for international regulations to prevent the creation of new debris.

Loading next visibility...
Identifier
31813, 1999-025CHB
Orbit
SSO
Country
Flag of CNCN / PRC
Related business
Manufacturer
Unknown
Mission
Spacecraft
Bus & Motor
Unknown
Mass
Unknown
Launch date (UTC)
1999-05-10 (27 years ago)
Launch vehicle
Unknown
Launch site
Taiyaun Space Center, China (TSC)
Object type
Payload
Rocket body
Debris
Shape & HBR
Unknown shape, 0.1 m
Radar Cross Section
Small (<0.1 m²)

Expand to show TLE details & history
Last TLE update: 4 hours ago

TLE from 4 hours ago
0 FENGYUN 1C DEB
1 31813U 99025CHB 26124.50869038  .00001527  00000-0  36245-3 0  9993
2 31813  99.4179 225.8432 0134049 270.5679  88.0154 14.50457766993259
Epoch: 2026-05-04T12:12Z
TLE epoch observation values (Epoch: 2026-05-04T12:12:30.848Z)
Latitude
-0.00001°
Longitude
-179.68221°
Altitude
725.064 km
Speed
7.494 km/s
True Right ascension
15h 03m 22s
True Declination
0° 00' 00"
Sunlit
Object was in full shadow at epoch
Visualization orbit readout
Latitude
Unknown
Longitude
Unknown
Altitude
Unknown
Speed
Unknown
Apparent Right ascension
Unknown
Apparent Declination
Unknown
Sunlit
N/A
Visualization observer readout
Local Sidereal Time
23:51:40
Azimuth
Unknown
Elevation
Unknown
Doppler factor
Unknown
Orbital elements
Apogee altitude
816.474 km
Perigee altitude
626.139 km
Semi-major axis
7,099.444 km
Eccentricity
0.0134
Inclination
99.4179°
RAAN
225.8432°
Arg. of periapsis
270.5679°
True anomaly
89.55127°
Mean anomaly
88.0154°
Eccentric anomaly
88.78327°
Mean motion
3.62833 °/min
Orbital period
99.22 mins
BSTAR
0.00036245
Loading maneuver chart data...
Computing Atmospheric mass density...

Documentation

Showing up to 5 results
|